VALLADOLID / VILLANUBLA current weather conditions

sailwx.info

Wind from 200 at 5 knots

Air temperature 32.0° C
Visibility: greater than 5.4 NM
Dewpoint 7.0° C

Last reported at 2015-Aug-29 17:30 UTC.
Time now 2015-Aug-29 18:59 UTC

Location: N 41°43' W 004°51'.
View on Google Maps.

See reports from other nearby stations

  
Tides and Currents Weather Stations Pressure Air Temp Water Temp Dewpoint Dewpoint Depression Visibility Wind Speed Wind Dir Waves Ship Positions
date/time (UTC)wind fromknots sea level pressurealtimeterstation pressurevisibilityair tempwater tempwave heightnotes
2015-Aug-29 17:30 200 5 5.432.0
2015-Aug-29 17:00 180 7 5.433.0
2015-Aug-29 16:30 260 6 5.435.0
2015-Aug-29 16:00 210 7 5.434.0
2015-Aug-29 15:30 220 9 34.0
2015-Aug-29 15:00 250 6 34.0
2015-Aug-29 14:30 250 9 34.0
2015-Aug-29 14:00 230 7 34.0
2015-Aug-29 13:30 230 8 34.0
2015-Aug-29 13:00 200 7 34.0
2015-Aug-29 12:30 220 6 33.0
2015-Aug-29 12:00 250 5 32.0
2015-Aug-29 11:30 210 6 32.0
2015-Aug-29 11:00 210 7 31.0
2015-Aug-29 10:30 190 8 30.0
2015-Aug-29 10:00 200 9 29.0
2015-Aug-29 09:30 200 9 27.0
2015-Aug-29 09:00 180 12 26.0
2015-Aug-29 08:30 190 5 25.0
2015-Aug-29 08:00 180 8 24.0
2015-Aug-29 07:30 170 5 23.0
2015-Aug-29 07:00 21.0
2015-Aug-29 06:30 190 6 20.0
2015-Aug-29 06:00 170 6 17.0
2015-Aug-29 05:30 150 4 16.0
2015-Aug-29 05:00 170 3 16.0
2015-Aug-28 19:30 320 3 25.0
2015-Aug-28 19:00 28.0
2015-Aug-28 18:30 30.0
2015-Aug-28 18:00 240 3 30.0
2015-Aug-28 17:30 230 4 31.0
2015-Aug-28 17:00 240 4 31.0
2015-Aug-28 16:30 210 6 31.0
2015-Aug-28 16:00 240 4 31.0
2015-Aug-28 15:30 210 3 31.0
2015-Aug-28 15:00 200 6 31.0
2015-Aug-28 14:30 200 6 30.0
2015-Aug-28 14:00 210 2 30.0
2015-Aug-28 13:30 170 2 29.0
2015-Aug-28 13:00 120 3 28.0
2015-Aug-28 12:30 140 3 28.0
2015-Aug-28 12:00 200 3 27.0
2015-Aug-28 11:30 210 3 26.0
2015-Aug-28 11:00 160 3 26.0
2015-Aug-28 10:30 220 3 25.0
2015-Aug-28 10:00 190 3 24.0
2015-Aug-28 09:30 22.0
2015-Aug-28 09:00 200 2 22.0
2015-Aug-28 08:30 190 1 21.0
2015-Aug-28 08:00 20.0
2015-Aug-28 07:30 19.0
2015-Aug-28 07:00 130 3 16.0
2015-Aug-28 06:30 15.0
2015-Aug-28 06:00 180 1 13.0
2015-Aug-28 05:30 230 2 14.0
2015-Aug-28 05:00 200 4 14.0
2015-Aug-27 19:30 270 9 23.0
2015-Aug-27 19:00 260 13 24.0
2015-Aug-27 18:30 270 14 25.0
2015-Aug-27 18:00 260 15 26.0